RH
18 18 17 16 17 17 18 19 18 16 21 26 28 29 24 17 15 15 15 14 16 18 18 20 18 14 13 16 23 29 29 32 34 30 26 27 32 38 43 48 52 49 43 41 41 45 52 55 49 42 42 46 47 47 50 55 61 64 67 69 67 67 68 66 61 59 60 57 52 52 53 52 52 49 48 48 47 48 46 44 44 40 33 29 28 29
18 18 17 16 18 20 21 20 18 18 22 26 30 31 26 22 18 17 17 15 18 20 20 21 18 14 14 15 19 26 29 29 30 30 26 25 26 33 45 51 48 47 45 44 46 49 56 56 46 42 44 46 49 50 50 54 59 63 68 73 71 69 70 64 57 54 54 51 48 50 51 49 50 48 48 48 47 45 40 38 40 38 36 32 27 26
19 17 16 18 21 22 22 22 19 19 21 23 29 31 27 23 19 18 18 17 19 21 21 23 21 15 14 16 17 22 28 28 26 27 25 25 24 27 44 52 46 45 45 48 52 51 54 54 46 43 46 48 51 50 51 56 60 64 69 73 73 71 65 57 52 51 49 49 50 53 51 49 48 47 47 47 44 39 34 34 37 37 39 37 30 27
23 19 17 19 24 24 22 25 24 22 22 21 26 28 25 24 20 18 20 19 21 24 24 25 27 24 18 18 19 18 23 28 25 24 24 25 25 28 42 51 48 46 48 53 52 44 46 53 49 47 50 53 53 52 55 59 62 65 68 72 73 67 57 50 51 50 49 51 54 55 53 50 48 47 47 43 41 41 39 41 41 38 41 41 36 33
26 25 22 20 23 24 24 27 27 25 24 21 24 25 24 25 23 20 23 24 24 26 26 25 28 28 25 24 22 16 20 28 29 27 26 26 29 34 43 49 50 52 57 57 47 39 45 51 49 51 56 58 56 56 59 63 65 68 69 68 66 58 50 51 53 53 54 57 56 54 53 52 51 47 44 42 42 43 44 44 41 38 41 40 36 37
28 29 28 27 26 25 27 29 27 24 23 21 21 21 21 25 25 22 24 27 28 28 28 28 27 26 25 27 25 20 22 27 29 30 29 28 33 41 47 51 54 56 60 54 42 41 47 51 52 56 60 60 59 60 63 66 70 72 71 64 58 53 52 56 56 55 57 57 54 55 54 52 49 44 43 44 44 44 46 44 42 42 43 40 38 38
26 27 28 32 31 27 28 28 25 22 20 19 19 17 17 21 26 25 26 30 31 31 33 33 30 26 23 22 23 23 22 24 28 31 32 31 35 42 47 53 56 57 58 48 41 46 51 54 58 61 65 64 62 65 66 67 69 71 69 63 58 55 56 59 56 55 57 54 50 50 50 48 46 45 46 47 45 46 46 44 43 42 41 41 40 38
24 24 26 29 29 28 27 24 21 20 18 17 18 19 16 16 23 28 30 33 34 33 35 34 30 27 24 22 27 28 24 27 32 34 33 32 37 46 52 55 54 56 58 47 41 46 50 58 66 69 74 73 69 71 72 70 69 70 68 64 62 60 60 59 56 57 57 52 47 47 48 48 46 48 49 48 48 47 44 41 41 40 41 43 42 39
23 23 26 28 27 27 25 21 19 20 19 16 19 25 23 18 19 27 32 35 36 35 36 36 33 29 25 24 30 32 27 30 34 37 37 32 39 53 57 56 55 56 54 44 41 49 54 66 78 81 82 81 78 77 75 72 68 68 67 65 65 64 63 63 60 58 55 51 49 49 53 53 49 50 47 44 45 42 40 41 42 43 44 45 44 43
29 24 24 26 26 23 21 19 17 19 19 17 19 26 31 25 18 22 31 33 37 37 36 38 36 34 30 27 30 33 32 33 35 39 40 33 39 52 53 52 57 57 50 43 48 58 63 71 83 85 84 85 84 79 75 72 67 64 63 63 65 67 66 65 62 59 54 51 51 54 58 56 51 50 45 41 40 38 41 44 44 44 44 45 47 46
31 27 23 23 23 20 19 20 19 19 19 18 19 24 31 32 22 19 23 28 35 36 34 34 37 40 37 32 31 33 34 36 37 39 38 36 41 48 49 51 58 56 48 49 58 63 64 69 74 77 84 87 83 78 73 68 64 61 59 58 62 67 66 63 60 58 53 52 54 58 60 58 54 50 44 43 40 36 40 44 43 43 44 47 48 45
24 25 25 22 21 19 20 23 26 24 19 17 20 24 31 34 28 23 23 28 35 36 31 30 37 41 39 35 34 34 36 36 39 40 38 43 49 46 45 50 56 53 48 56 64 63 63 67 69 73 82 84 78 75 72 67 64 61 58 58 61 63 61 57 56 54 52 53 57 61 62 61 57 49 44 45 39 35 39 43 44 45 47 48 48 44
21 22 24 24 21 19 21 25 28 26 20 18 19 23 32 37 35 34 33 33 33 30 28 32 39 41 38 37 37 40 43 39 40 43 45 51 55 50 47 49 52 48 48 59 64 61 63 67 69 71 75 75 74 73 70 70 70 66 62 63 60 58 58 56 57 56 55 57 61 64 65 64 57 47 44 43 39 40 44 45 46 47 48 50 50 46
22 21 22 24 22 20 21 24 27 25 21 19 19 22 31 39 40 39 37 36 34 28 29 34 37 40 41 39 37 40 46 44 44 47 49 51 53 54 54 53 55 54 53 59 60 60 67 70 70 70 69 70 71 69 62 60 63 64 62 60 54 53 55 56 59 62 61 61 63 65 64 62 56 47 44 45 44 47 48 46 47 49 51 53 52 46
25 24 23 23 21 21 20 20 26 28 23 18 17 23 31 38 40 40 37 38 38 34 35 38 37 41 48 49 43 40 43 45 47 47 46 46 47 49 50 51 58 61 58 57 54 58 70 70 66 68 69 65 63 63 59 54 54 55 55 55 53 52 54 53 57 61 62 61 62 64 62 58 56 52 50 52 52 52 51 50 51 54 54 53 49 43
27 27 27 24 22 22 20 18 22 29 32 24 16 21 32 37 38 39 39 41 41 39 39 42 42 45 52 54 50 45 43 42 43 44 45 44 42 42 46 50 56 58 58 55 50 58 71 70 64 66 71 69 64 60 58 56 57 56 55 56 56 55 53 54 56 59 62 61 61 65 62 59 59 56 56 59 55 53 54 54 54 55 55 53 48 41
29 31 33 29 24 23 22 21 19 24 35 35 24 22 30 34 35 40 41 39 40 40 38 41 46 49 50 51 48 45 44 43 42 45 46 46 46 46 47 52 57 60 61 58 55 64 74 75 71 70 71 73 71 67 64 65 65 63 61 59 58 56 53 53 56 59 64 64 65 68 66 64 63 59 60 61 55 53 55 55 55 55 54 53 47 40
33 37 41 37 31 27 23 22 21 20 29 38 34 29 30 33 35 39 43 41 41 41 37 39 48 55 52 48 46 42 40 43 47 50 48 45 48 52 53 59 66 66 63 62 66 71 75 76 74 72 73 74 72 68 69 72 71 67 65 62 60 58 55 55 59 62 65 66 68 70 71 71 68 63 62 60 52 50 54 54 55 56 55 54 48 40
38 39 42 40 38 35 27 24 24 23 25 34 40 37 35 40 41 40 43 45 46 45 40 35 38 49 51 46 47 45 41 46 50 52 51 47 48 55 58 62 67 68 67 71 76 77 76 74 71 71 74 76 72 65 65 74 77 71 67 66 67 67 63 62 66 67 68 69 71 71 71 72 70 64 60 56 51 49 51 53 56 57 56 53 46 39
40 43 44 44 42 39 34 30 28 26 26 31 37 37 37 41 43 43 44 43 42 45 44 34 32 48 55 49 49 50 50 52 53 53 54 53 55 58 58 59 64 69 73 76 77 75 73 71 69 67 66 68 68 61 60 71 76 69 63 62 66 69 69 69 71 72 73 72 69 70 73 74 72 67 60 56 54 51 48 51 56 58 54 49 42 35
38 43 48 47 44 41 39 35 31 30 31 31 32 34 35 38 40 44 45 41 38 41 43 37 42 60 65 54 51 53 54 55 58 65 67 63 62 61 60 66 73 75 76 77 76 75 73 68 64 62 61 62 63 58 60 69 71 68 66 62 60 63 66 67 67 70 74 75 71 70 73 75 74 71 67 61 54 48 46 50 55 55 48 45 43 36
39 40 45 48 46 44 42 40 37 33 32 32 32 31 32 37 41 44 43 41 38 38 41 40 50 65 65 59 56 53 53 58 64 72 74 71 71 69 67 69 72 73 73 70 67 68 70 67 63 61 59 58 58 58 63 67 66 66 67 65 63 64 66 65 65 69 75 75 72 70 73 74 74 73 70 63 51 44 46 49 52 51 45 45 45 39
46 44 46 46 45 44 42 42 42 37 34 34 34 34 33 34 38 39 44 48 44 39 40 39 46 59 60 59 60 56 54 60 64 67 70 70 73 74 70 67 67 71 70 63 57 59 63 65 64 63 58 55 56 59 62 63 60 60 62 63 62 63 64 61 62 71 77 76 70 69 72 74 72 71 67 60 50 46 46 46 49 50 48 47 45 41
49 50 51 49 48 49 45 43 42 40 38 37 35 37 40 38 37 36 41 50 48 44 43 41 47 59 61 59 59 57 57 59 61 64 66 66 67 69 69 68 69 72 69 60 58 58 59 60 61 60 55 54 57 60 61 62 61 61 62 64 64 63 63 63 63 68 73 71 68 68 70 71 68 66 65 60 54 51 50 48 48 48 50 51 47 43
51 52 51 51 56 58 53 51 51 48 45 42 38 38 41 42 42 41 41 44 44 43 43 45 53 62 62 61 59 56 59 62 61 63 65 65 66 68 68 68 67 68 67 62 60 60 58 58 58 56 55 58 60 62 63 64 64 63 64 67 68 65 64 66 66 69 71 68 66 65 66 67 66 65 64 62 58 59 58 54 52 50 50 53 50 45
54 55 52 52 57 62 61 60 60 57 50 46 43 41 42 41 41 45 47 47 45 43 44 48 55 62 64 65 64 61 63 65 63 63 66 66 68 68 67 67 66 65 66 64 61 60 60 61 62 62 61 61 61 61 63 64 65 65 65 69 70 63 61 61 59 64 70 70 67 65 62 60 60 61 63 65 63 63 63 62 60 56 51 52 52 49
55 56 55 53 56 60 64 63 61 58 54 51 48 46 46 46 42 44 49 51 50 49 54 57 57 62 67 67 70 71 69 68 66 67 68 69 70 70 67 66 66 65 64 62 62 63 63 63 65 67 67 65 63 63 61 62 66 66 64 64 62 56 56 58 56 61 69 67 66 66 62 59 61 62 65 68 66 64 67 69 64 56 51 53 54 52
55 54 53 53 54 56 59 61 60 59 57 56 55 51 51 52 50 47 46 47 48 52 60 64 63 68 72 70 72 75 74 72 71 70 74 75 73 71 67 64 64 65 64 62 62 63 64 63 64 66 67 68 71 70 65 65 70 70 64 61 57 54 56 59 59 62 65 63 63 64 62 62 65 65 65 67 66 64 67 70 64 55 52 54 54 52
51 52 51 52 54 53 55 56 58 59 58 58 59 57 56 56 58 58 53 49 50 53 59 67 70 74 77 74 73 73 73 74 74 73 78 80 73 69 68 67 66 66 63 61 61 61 62 63 64 64 64 64 66 67 64 66 69 67 63 62 61 61 60 60 60 59 59 61 62 63 63 63 66 66 65 66 67 65 65 66 64 59 56 55 53 52
49 53 53 52 51 52 54 55 56 59 60 61 62 62 62 62 64 68 66 60 59 59 62 69 73 75 78 77 75 74 73 76 78 78 81 84 80 75 71 69 69 67 64 61 60 59 60 62 63 62 61 59 59 59 59 64 66 63 62 63 63 61 58 58 61 62 61 61 60 61 62 64 67 69 68 66 64 61 59 58 58 57 55 54 54 55
52 55 55 53 52 52 53 53 53 56 59 61 63 63 65 67 69 71 74 75 74 69 68 71 71 72 77 77 72 70 71 72 75 77 79 80 81 80 74 68 66 65 63 61 60 59 58 58 59 60 61 60 61 59 58 60 61 59 59 61 61 60 60 60 62 64 63 63 63 63 64 65 69 69 66 62 59 57 55 54 54 54 53 52 51 52
57 55 55 56 56 54 52 52 54 54 55 59 63 65 67 71 72 71 72 79 82 76 72 72 70 70 71 67 62 64 66 66 69 75 79 76 75 76 74 68 64 61 58 55 54 52 51 51 50 52 54 56 58 60 59 58 56 53 55 58 60 61 60 61 62 62 62 63 63 64 62 61 61 61 59 57 54 54 55 54 54 54 54 53 51 49
67 60 59 58 55 54 54 56 56 56 57 60 63 65 68 72 73 70 70 75 79 77 74 72 71 69 62 56 56 61 63 62 63 69 76 78 74 72 69 66 64 63 59 56 54 53 52 52 49 48 49 50 51 52 52 52 51 52 56 58 60 61 60 62 64 64 63 62 63 62 59 55 52 51 51 51 51 51 52 53 53 53 54 53 52 51
74 70 71 67 61 61 62 61 61 62 65 69 69 66 66 70 72 72 72 74 77 77 76 74 71 67 60 56 57 60 64 66 66 67 72 75 75 72 68 65 64 64 63 62 61 59 57 56 55 53 52 51 49 49 50 50 49 52 56 58 59 61 61 62 65 64 64 64 62 60 57 52 49 48 48 50 52 51 51 52 52 53 53 52 51 51
71 71 75 74 68 68 68 66 68 71 73 75 74 69 66 68 70 70 71 74 75 76 77 78 75 69 63 61 62 64 68 72 71 71 72 72 73 73 70 69 68 70 71 70 69 67 65 62 60 58 57 55 54 54 54 54 52 51 52 55 57 61 63 62 61 62 64 65 63 60 56 49 45 45 46 48 50 50 51 52 51 51 50 48 46 46
64 66 67 65 64 66 65 66 72 76 75 75 76 74 70 70 71 71 71 73 74 75 76 76 73 67 63 62 65 70 74 75 74 74 73 71 71 72 70 70 72 74 75 74 73 71 70 67 67 67 67 65 64 63 61 60 59 56 55 55 54 58 62 60 55 56 61 65 65 64 60 52 46 46 46 46 48 49 49 50 51 51 50 48 46 44
58 61 61 60 63 65 65 66 71 75 77 78 76 75 75 75 75 74 75 77 77 74 75 74 71 69 67 64 67 70 72 73 75 75 74 72 72 72 72 72 72 73 74 74 73 72 71 72 74 78 77 76 75 75 73 72 70 68 68 66 61 60 60 55 52 55 61 66 69 69 65 60 55 54 54 53 53 53 52 52 52 53 51 50 49 46
56 60 62 64 68 71 71 75 77 78 82 82 76 74 75 77 76 74 76 81 79 74 77 78 76 76 75 72 71 72 70 71 73 74 74 74 75 75 76 76 77 78 78 76 75 75 74 76 79 80 79 78 79 79 78 76 74 74 74 73 71 70 69 65 64 67 69 72 74 73 71 69 65 64 64 63 61 59 56 54 52 51 50 49 49 48
56 61 61 63 67 71 73 79 84 87 90 88 80 74 73 75 78 76 77 83 80 74 75 79 78 79 81 80 79 77 75 76 76 74 75 76 77 79 80 80 78 78 78 76 76 77 76 76 78 78 76 75 75 76 78 78 79 80 80 78 78 77 77 78 78 77 77 78 79 78 77 75 72 71 71 69 66 64 61 58 56 53 51 49 47 47
59 59 57 58 62 64 66 71 79 86 89 85 79 75 73 76 80 81 81 84 83 77 74 74 75 79 82 84 83 80 79 79 76 74 75 76 76 78 80 81 78 77 77 77 77 79 79 78 79 80 79 78 75 74 77 79 78 78 79 78 78 78 78 79 80 79 79 79 77 76 74 73 72 72 72 71 70 66 63 60 58 55 51 49 46 45
65 60 55 55 58 63 68 74 80 84 85 81 75 72 72 75 81 85 85 83 82 80 78 76 76 78 79 79 79 80 79 78 75 75 75 75 75 77 79 80 78 78 79 78 75 76 78 79 80 81 81 81 78 77 77 74 70 69 68 68 70 72 72 72 72 72 72 71 68 66 67 67 68 68 69 68 66 62 59 56 53 51 49 47 45 44
68 65 62 62 62 63 69 76 84 89 86 79 73 70 71 77 84 85 83 80 78 78 78 77 76 76 75 74 75 76 75 73 73 73 73 72 73 74 76 76 76 76 76 76 74 72 74 78 80 79 79 77 76 74 72 69 67 68 66 65 65 66 64 62 62 61 60 61 61 61 61 60 59 58 57 56 54 52 50 48 47 46 46 45 45 44
71 69 71 73 70 66 68 77 88 93 86 77 76 74 74 79 84 82 78 79 79 75 75 77 76 76 76 76 75 75 73 72 72 72 71 71 72 72 74 74 75 74 73 74 73 69 69 74 77 76 77 76 73 70 67 65 66 66 64 63 63 62 59 57 56 55 53 53 53 53 53 52 52 51 49 47 46 44 43 43 42 42 43 43 44 44
68 68 73 77 74 73 80 88 90 87 80 77 79 80 79 82 83 80 78 79 79 78 78 77 76 76 77 77 77 78 76 74 73 73 73 73 73 74 75 73 73 72 72 72 70 66 67 71 72 71 73 72 70 68 65 63 63 61 59 59 58 57 56 54 53 51 49 47 46 45 45 46 47 49 50 50 49 47 45 44 44 43 43 42 43 45
64 65 68 70 70 73 82 88 85 81 79 80 82 82 82 83 83 82 81 81 81 83 84 83 82 83 83 83 83 83 82 78 76 74 74 74 74 74 74 75 74 73 72 73 71 68 69 71 70 69 70 69 66 65 63 62 62 60 59 58 57 57 56 55 54 53 51 51 50 49 48 47 46 47 48 49 50 49 48 47 46 45 45 44 44 45
58 56 56 60 63 66 71 76 78 77 78 81 82 81 80 82 83 84 84 83 83 84 85 86 87 86 86 86 85 84 84 82 80 79 78 77 77 76 76 76 76 74 73 73 73 71 70 69 67 66 65 63 61 60 59 58 58 57 55 54 53 53 52 51 50 50 50 50 50 50 49 48 47 46 46 46 48 48 48 47 46 44 43 42 42 42
51 50 51 56 61 63 67 70 70 69 71 74 76 77 77 79 81 81 82 83 82 81 82 85 86 85 85 86 85 85 85 85 83 81 80 79 78 77 76 76 75 73 71 71 69 67 64 62 60 59 58 56 55 54 53 52 52 50 49 49 48 47 46 46 46 46 46 45 46 45 45 44 43 43 42 42 41 40 39 39 37 36 35 34 33 32
51 50 51 54 58 61 65 67 64 62 63 65 68 71 73 77 80 80 81 82 80 79 80 80 80 81 82 83 84 84 84 83 80 78 76 74 74 73 73 72 70 68 65 63 62 59 57 56 55 53 52 51 50 50 50 49 49 48 48 48 47 47 46 46 46 46 46 46 45 44 43 41 39 38 36 35 34 32 30 29 27 26 26 25 24 23
48 50 51 55 63 66 66 64 62 61 61 60 59 60 63 69 76 79 81 81 79 79 80 79 78 79 81 82 82 82 81 82 81 79 76 74 74 73 70 67 63 60 58 56 54 53 52 52 52 51 50 50 51 51 50 50 50 51 50 50 49 49 48 48 47 46 45 44 43 41 40 38 37 35 33 31 31 29 28 26 24 24 22 21 22 22
46 50 50 54 65 68 66 66 67 67 66 63 59 56 58 63 68 70 72 74 74 73 74 76 77 79 81 82 82 80 79 79 79 76 73 71 70 69 66 63 59 56 55 54 52 52 52 52 53 53 53 53 52 51 50 50 49 49 48 48 47 46 45 44 43 42 41 40 39 38 37 36 37 36 36 35 33 32 30 28 28 27 26 25 25 24
46 52 52 55 61 64 66 71 71 68 69 67 62 60 60 61 62 62 62 63 63 62 63 65 67 68 69 71 71 69 68 68 68 68 66 64 63 62 60 59 56 53 51 50 49 48 48 48 48 48 47 47 46 44 44 43 43 42 42 42 43 42 41 41 40 40 40 39 39 39 39 39 39 39 39 39 38 37 37 35 34 33 33 34 33 31